Theta_e
314 314 314 315 314 313 314 314 314 314 315 317 318 319 320 322 324 324 324 324 324 324 323 323 322 322 318 306 305 321 327 329 327 322 319 316 311 308 303 303 305 303 304 308 310 310 309
313 313 313 314 314 314 314 314 313 314 314 316 317 318 319 320 321 323 324 323 324 323 324 323 322 322 313 297 318 320 323 322 321 318 316 317 313 312 306 304 301 304 304 308 310 309 309
312 312 313 314 314 315 314 314 314 314 314 315 316 317 318 319 320 322 322 323 323 323 323 323 322 315 307 302 316 319 319 319 321 318 312 317 318 312 308 302 307 305 301 303 305 307 306
310 311 312 313 314 314 314 313 313 313 314 315 315 316 317 318 319 320 321 321 322 322 322 322 322 311 301 313 316 316 316 317 322 322 320 320 320 313 307 308 304 299 298 292 301 304 305
309 309 310 311 313 314 313 313 313 312 313 313 314 315 315 317 317 319 320 320 319 321 321 321 313 308 299 314 307 312 316 311 318 320 321 321 318 307 307 299 293 295 286 290 293 302 300
309 309 309 310 313 313 313 313 312 312 312 312 313 314 314 315 315 317 318 319 318 317 318 313 311 301 305 301 307 309 314 317 314 314 313 311 306 298 299 293 284 288 288 289 289 295 296
309 309 309 309 311 312 312 312 312 312 312 312 312 313 313 313 312 314 316 312 306 304 307 301 301 300 303 307 310 306 311 314 312 308 298 304 297 293 295 297 294 291 289 290 291 297 295
308 309 309 309 309 311 312 311 311 311 311 312 312 312 313 311 310 310 312 305 305 308 298 305 305 303 306 308 299 303 313 305 305 297 300 298 292 298 299 299 296 294 290 288 291 296 294
308 308 308 309 309 309 310 310 311 311 311 311 312 312 312 312 309 307 305 306 314 313 298 300 304 302 302 305 299 299 308 306 300 297 297 294 295 299 298 296 294 293 291 289 289 294 295
308 308 308 308 309 309 309 310 311 311 310 310 311 311 310 310 304 305 300 308 312 313 290 292 297 300 303 304 297 305 308 304 299 295 297 297 300 297 294 293 295 290 296 294 292 289 284
308 308 309 309 309 310 310 309 311 310 310 310 311 310 311 308 304 299 303 307 310 305 277 294 296 308 304 299 299 299 307 303 294 294 296 292 294 294 293 294 296 292 296 294 292 289 288
309 309 309 309 309 309 309 309 310 310 310 310 310 309 309 306 305 306 310 309 306 286 277 289 296 295 296 298 298 300 299 304 301 295 295 294 298 297 295 297 297 298 294 293 292 291 283
308 308 308 308 308 309 308 309 309 310 310 309 309 309 306 306 298 308 307 300 283 279 290 286 289 294 294 293 295 296 293 293 290 287 286 291 293 296 298 293 297 296 290 282 279 280 276
307 307 308 307 307 308 308 309 309 310 309 309 309 308 306 305 307 307 302 287 276 285 285 293 292 293 290 293 293 294 292 289 294 292 288 285 283 292 297 294 291 292 291 281 274 276 277
307 307 307 307 306 307 308 308 309 309 309 308 307 304 303 304 307 305 291 279 278 284 288 290 291 287 288 292 292 292 291 290 292 294 285 285 285 295 296 296 295 290 287 291 282 279 277
307 307 308 308 307 307 308 308 309 309 308 308 300 298 298 305 304 295 285 282 284 288 287 288 285 288 284 288 288 289 289 293 292 295 295 290 283 291 293 295 295 292 294 284 284 272 272
307 308 309 310 309 309 309 309 309 309 308 306 298 290 299 303 298 287 280 282 284 289 288 284 287 287 287 287 289 288 287 292 295 294 296 291 288 286 291 289 288 289 287 289 288 283 275
307 309 309 309 310 309 309 309 309 308 307 302 295 283 298 300 285 284 282 284 286 287 288 286 286 289 288 289 288 288 287 290 296 296 290 293 288 283 286 291 294 292 289 289 282 279 283
307 308 308 308 309 309 309 309 309 308 305 297 287 287 297 297 280 281 283 283 285 285 285 285 284 286 287 289 286 289 290 295 295 295 292 293 286 280 282 287 289 287 290 290 290 286 282
306 308 309 309 309 309 308 308 307 306 306 298 290 281 286 290 288 283 280 280 279 288 287 287 285 287 285 287 291 288 289 293 295 295 297 296 288 284 279 282 285 283 287 290 288 283 282
307 308 309 309 309 308 308 307 306 306 306 299 291 282 284 280 282 282 283 282 280 280 288 288 285 284 283 281 286 287 291 291 294 296 295 293 285 286 287 287 287 286 286 287 286 287 282
307 308 308 308 308 308 308 307 306 305 304 293 286 283 285 281 284 283 281 278 280 280 283 282 282 284 285 280 283 281 289 290 289 292 292 293 283 285 283 287 287 284 286 287 287 288 288
306 307 307 307 307 307 306 305 304 305 303 292 292 292 289 285 282 281 281 279 281 283 285 286 286 285 283 286 288 290 291 291 293 290 290 290 286 284 279 284 283 281 285 286 286 288 288
305 305 306 305 305 304 304 304 304 305 303 296 294 292 286 279 283 282 283 284 282 283 281 284 286 285 290 297 295 294 291 293 294 292 293 288 286 285 279 277 274 284 290 290 288 289 290
305 304 304 304 305 304 304 303 303 303 304 297 295 292 286 279 283 283 284 285 285 286 284 284 286 290 294 291 286 283 283 284 284 290 290 292 287 283 279 277 281 282 285 285 284 285 290
304 305 304 304 303 304 304 303 302 303 302 298 295 296 289 284 282 285 283 283 282 283 283 284 288 291 291 286 281 278 277 278 280 283 286 289 289 284 281 276 274 283 288 290 287 278 288
302 304 304 304 304 303 303 302 302 302 302 300 296 296 291 285 287 284 283 283 286 284 280 283 283 284 289 281 277 277 277 281 278 276 280 282 283 280 279 277 277 285 286 289 278 281 289
300 301 302 303 303 304 303 303 303 303 302 299 295 294 291 286 288 288 287 285 284 283 279 284 285 285 284 280 279 279 279 280 281 281 278 280 279 279 280 277 275 288 285 282 285 286 287
299 299 300 301 301 302 303 303 304 304 303 302 293 296 295 287 287 291 290 289 287 286 286 286 283 285 285 283 284 284 280 279 277 273 284 278 283 279 280 280 286 287 286 288 287 286 284
Wind_Speed
19 16 14 18 21 20 18 15 15 13 12 12 10 11 13 11 9 14 14 14 13 11 9 8 7 6 2 5 5 6 3 4 5 5 3 5 6 6 6 4 3 5 4 4 6 4 3
21 20 18 19 21 22 18 17 14 14 11 12 8 10 12 11 10 10 15 15 13 12 11 10 9 6 3 9 3 2 2 4 2 6 6 5 2 7 5 7 4 6 8 6 3 4 1
22 22 23 22 19 22 19 17 15 14 13 10 7 9 13 12 10 10 14 12 13 12 12 11 10 6 6 7 2 2 2 2 3 3 5 6 5 4 3 4 4 4 5 0 2 6 4
23 23 23 23 22 19 20 17 14 12 13 10 6 10 10 12 11 11 10 10 12 11 13 11 10 8 5 2 3 3 4 4 1 3 4 3 3 6 3 4 3 2 5 7 8 9 3
24 24 24 23 22 18 19 17 16 13 14 12 10 10 6 9 9 11 12 10 6 8 14 12 6 7 4 2 5 6 5 8 5 3 1 3 3 1 2 4 3 4 4 9 9 14 7
23 23 23 23 23 15 19 18 17 16 14 13 10 11 9 6 4 10 12 11 8 3 10 4 3 4 6 6 7 9 6 4 7 8 4 4 4 4 5 6 7 7 9 8 10 6 3
23 22 23 23 21 13 17 18 17 17 16 14 13 11 11 8 4 4 11 7 4 5 5 3 9 2 5 6 5 7 9 4 7 9 7 8 5 11 14 11 10 2 4 10 8 5 4
23 22 23 22 19 16 15 16 17 20 18 15 16 15 10 11 6 3 8 7 9 5 4 4 9 5 5 4 5 8 9 8 8 10 10 6 13 12 10 11 10 8 6 8 2 4 1
24 24 25 22 20 17 15 16 17 20 19 18 16 16 13 11 10 3 7 16 4 8 5 5 4 10 4 4 4 14 12 6 9 12 14 9 3 16 14 10 11 10 8 7 7 3 4
27 27 24 24 21 20 18 19 18 18 18 18 18 17 14 13 1 4 4 9 10 4 3 7 9 6 6 6 5 13 11 6 6 14 14 11 9 16 11 13 10 12 8 8 7 4 3
29 27 25 24 23 20 18 18 20 18 20 20 19 18 17 18 3 4 5 2 5 3 7 14 11 8 12 10 11 10 12 6 8 7 8 4 8 9 11 10 9 5 5 9 9 5 6
24 23 21 18 17 18 19 18 19 18 22 21 19 19 18 13 6 2 11 4 4 6 9 11 10 18 16 15 7 7 8 6 3 7 7 9 2 3 7 6 8 5 4 3 3 3 9
23 20 19 18 17 17 20 19 19 20 22 21 20 18 14 7 10 7 7 5 5 10 8 7 10 18 22 15 14 9 14 13 9 7 12 9 7 4 1 8 4 10 9 3 3 5 7
26 25 22 21 20 18 15 20 21 23 23 21 20 19 10 7 4 9 3 1 7 3 9 5 11 17 21 17 15 15 17 15 16 9 10 9 8 12 7 8 6 13 11 5 7 5 3
29 28 27 26 25 23 20 21 24 26 24 23 20 6 4 3 4 5 2 5 4 1 3 6 10 14 13 18 10 15 20 22 19 19 8 10 8 11 16 7 10 6 12 6 4 3 2
30 33 31 26 24 22 21 24 27 27 26 25 7 5 4 8 9 5 1 5 1 3 6 8 12 10 17 20 15 18 19 17 16 21 11 2 4 4 6 8 9 7 5 6 6 4 5
32 34 33 19 20 24 21 26 29 28 27 23 6 4 6 10 7 4 3 2 2 4 5 4 6 7 16 15 21 17 14 10 27 21 18 3 3 1 6 10 14 11 5 6 5 6 4
34 31 20 11 20 26 28 30 30 30 30 13 4 5 5 5 3 1 1 3 1 3 3 1 6 6 12 21 18 17 19 18 13 17 26 16 5 4 8 1 9 16 13 11 5 6 4
33 26 17 19 24 30 30 31 31 32 22 6 4 3 2 3 5 4 2 2 3 1 4 4 1 6 8 13 15 24 17 11 8 23 18 16 6 5 3 4 4 8 14 17 15 6 10
31 21 21 23 27 28 30 30 31 28 17 5 5 4 2 1 1 3 5 4 4 6 3 5 2 5 5 6 18 19 20 10 9 12 10 18 5 13 16 9 10 8 13 19 17 9 14
23 19 21 24 26 27 29 30 28 19 11 5 4 2 0 4 4 3 5 4 7 6 6 8 5 7 2 5 11 11 23 11 7 10 13 10 9 13 17 11 5 7 12 16 18 24 15
27 18 20 21 24 27 28 28 20 13 11 5 3 3 1 1 6 8 6 3 9 6 8 6 9 11 8 5 5 13 11 13 11 7 14 11 7 8 13 15 15 15 12 12 23 22 17
27 25 25 23 25 25 26 20 14 11 7 4 1 1 1 7 2 4 8 7 7 10 7 16 13 7 9 16 11 8 15 19 8 12 14 13 8 6 13 13 8 11 23 19 15 17 19
21 22 23 25 26 23 19 12 13 16 10 4 3 0 1 2 6 9 7 14 17 16 18 10 8 11 6 5 7 2 15 16 9 12 13 14 14 7 7 4 15 12 11 17 22 18 16
18 16 17 17 17 16 13 13 13 15 12 4 1 2 1 2 2 8 11 16 16 15 21 17 14 6 6 5 1 2 8 2 3 13 10 11 9 7 9 11 11 9 10 11 10 19 18
21 21 12 9 6 6 8 6 4 8 10 4 2 2 1 1 2 1 5 7 10 11 12 17 7 4 5 2 3 7 9 4 4 3 4 2 4 8 5 9 16 11 15 12 5 4 16
19 18 18 10 7 4 3 2 1 3 2 2 2 3 0 2 2 3 5 4 4 3 2 2 6 3 5 5 5 4 4 4 6 9 6 7 6 13 10 8 6 7 7 7 9 14 17
18 16 15 14 13 11 5 0 2 4 2 2 1 5 2 2 4 5 3 4 3 2 3 1 3 3 5 7 5 5 5 4 1 4 8 12 7 5 6 10 17 7 4 13 12 3 5
17 16 13 11 11 10 9 8 7 6 4 7 2 3 3 3 4 2 2 2 2 1 0 3 1 2 5 6 3 3 2 1 5 4 5 5 11 6 7 7 7 10 11 13 6 7 4
Wind_Direction
335 333 295 265 265 250 249 249 242 245 257 266 260 247 237 231 214 212 202 187 185 178 179 182 184 190 208 215 254 125 309 3 162 165 222 244 254 251 258 271 238 259 241 24 86 126 256
337 335 321 284 263 254 241 242 243 240 244 251 253 246 227 218 222 216 205 193 182 177 173 181 182 165 250 224 84 119 36 307 31 184 194 248 297 294 314 285 253 6 267 162 119 237 224
334 332 329 321 269 244 232 235 232 234 240 244 235 254 220 216 213 210 201 188 189 176 173 178 179 181 227 220 101 78 242 336 338 259 199 223 320 299 259 292 47 346 299 190 200 253 241
328 329 326 329 309 237 226 226 227 236 228 242 216 241 225 212 207 196 180 187 197 185 170 172 178 203 243 131 135 193 213 220 241 338 325 120 13 287 313 41 30 276 270 243 202 208 210
324 322 321 320 313 244 224 226 221 222 225 230 217 227 225 211 214 200 187 174 172 224 172 162 175 222 228 113 191 203 236 190 158 174 84 112 230 208 138 207 167 231 240 231 259 191 207
321 319 320 319 314 251 231 227 218 212 215 223 207 215 179 180 305 211 191 160 144 212 168 83 340 167 199 207 162 179 205 241 161 155 125 174 184 177 181 207 199 187 222 266 213 178 224
316 315 317 316 323 263 237 225 221 218 215 207 203 203 165 160 144 317 183 133 165 198 217 217 158 217 154 85 103 176 183 193 179 178 170 194 184 194 188 216 246 332 297 218 265 150 187
316 314 313 309 306 288 247 238 226 220 214 205 206 190 167 161 150 60 220 201 181 136 205 185 179 99 114 188 112 177 164 186 190 183 193 163 218 204 217 199 228 261 255 282 263 86 122
310 306 307 297 291 287 268 252 234 218 213 204 199 190 178 153 115 76 314 214 88 184 190 177 188 192 177 189 173 176 179 209 191 194 201 194 184 212 207 212 206 219 223 256 261 161 266
309 304 305 294 277 271 263 252 244 214 211 203 194 188 179 113 144 115 257 285 333 24 239 178 194 205 151 188 238 166 196 178 188 206 194 228 209 182 217 212 203 225 212 235 285 306 260
304 302 294 286 268 257 248 246 232 215 206 196 187 186 171 146 182 170 144 289 289 68 223 162 168 149 161 181 131 188 184 213 203 206 198 186 198 194 200 207 202 226 235 220 226 256 286
305 299 298 289 283 257 239 237 223 212 198 186 182 178 182 178 226 175 121 161 183 183 210 173 147 174 162 197 176 122 165 237 244 225 260 227 34 298 187 215 192 130 110 151 230 211 245
324 316 304 294 289 265 236 229 214 188 178 170 173 173 166 171 199 145 125 132 225 211 152 169 170 177 178 177 190 164 176 193 174 166 211 226 178 154 139 181 152 153 146 158 208 213 232
321 312 300 290 281 272 232 216 202 178 168 159 161 160 182 177 188 140 120 151 221 230 180 182 169 170 190 160 202 177 170 193 219 217 156 188 196 183 171 196 169 190 190 166 184 199 262
320 310 295 278 267 253 222 212 190 174 164 154 148 149 137 168 144 135 117 216 197 175 84 172 162 173 190 186 154 177 191 199 196 203 200 192 228 164 172 175 167 174 219 236 336 134 87
322 317 310 283 247 232 206 196 177 168 157 146 129 130 141 110 106 74 149 253 294 5 41 304 179 172 187 190 189 190 187 202 210 208 229 140 155 340 150 181 240 163 150 190 214 208 222
331 328 317 290 219 196 186 174 161 159 148 137 113 115 128 100 65 59 260 154 120 86 61 328 251 165 192 185 197 193 204 204 196 201 205 179 154 203 112 210 185 193 201 223 172 215 189
343 341 358 45 147 154 156 153 150 145 141 126 103 100 136 102 101 96 297 64 181 151 148 28 285 274 186 191 198 198 212 201 193 194 195 197 120 179 212 183 227 210 208 202 185 212 249
356 3 38 86 116 132 137 139 141 140 138 113 82 98 145 111 177 170 122 266 271 176 158 143 257 13 354 223 200 211 206 212 169 192 188 177 185 145 172 268 304 225 214 220 221 252 224
4 23 64 92 113 122 125 130 139 138 129 90 109 115 104 152 218 151 135 188 245 228 178 158 272 268 334 287 213 201 215 189 192 192 192 170 159 217 222 221 138 199 208 213 219 220 230
20 60 76 101 110 116 124 132 138 130 101 83 24 112 239 149 204 165 169 191 174 193 217 186 226 196 174 295 248 203 206 190 199 172 181 160 218 211 241 260 224 191 205 216 218 231 220
28 56 87 97 107 117 124 130 126 91 77 73 101 138 234 74 137 190 207 247 243 220 177 213 236 210 172 213 258 312 291 192 183 187 187 176 231 189 239 236 234 244 197 209 223 236 247
46 56 73 99 106 110 118 122 102 51 69 83 26 70 337 153 169 176 222 227 250 262 243 232 221 238 231 237 244 272 294 289 204 175 197 179 205 158 236 234 236 252 233 219 222 226 228
63 67 79 93 105 113 127 107 73 63 67 97 32 131 96 229 189 209 238 227 227 228 243 270 237 223 201 293 159 232 292 264 234 184 189 189 200 206 250 77 235 235 230 218 228 234 231
60 80 86 99 100 108 100 88 76 64 62 86 117 70 141 257 242 265 256 255 256 235 230 241 237 220 81 21 251 256 233 246 217 206 200 202 184 210 233 235 262 306 231 205 203 238 232
44 44 78 114 104 100 98 81 67 68 68 80 96 85 123 299 240 9 274 251 258 230 229 232 252 158 125 111 223 210 256 154 176 162 318 212 174 199 188 228 235 241 236 225 179 238 240
33 38 40 54 68 78 85 62 29 335 354 94 102 165 209 254 193 179 251 296 293 170 117 148 171 127 157 210 253 184 241 331 167 168 178 201 202 219 229 241 252 229 143 86 163 234 250
22 30 32 28 28 25 18 47 22 338 13 141 95 169 202 243 255 193 233 260 292 306 146 192 95 161 170 208 199 219 210 182 292 205 177 184 186 198 218 230 247 201 91 184 216 156 214
17 11 10 14 12 7 354 319 288 249 215 195 260 164 184 226 271 227 234 207 247 247 198 205 223 165 201 194 200 196 101 152 185 234 180 200 200 190 171 214 217 191 198 218 199 211 228